This demonstration page uses our WeatherBlox Daily Observations layout. Learn more.

Left ArrowRight Arrow

Hourly Observations for July 12, 2022

Temp ( °F °C ) Dew Point ( °F °C ) Humidity (%) Winds ( mph kmh ) Pressure ( in mb ) Visibility ( mi km ) Precip ( " mm )
12:15 am 00:15 Clear 70 21 61 16 73 73 S 5 7 29.90 1013 N/A 0.00 0.00
12:35 am 00:35 Clear 70 21 61 16 73 73 S 5 7 29.90 1013 N/A 0.00 0.00
12:55 am 00:55 Clear 68 20 61 16 78 78 S 5 7 29.89 1012 N/A 0.00 0.00
1:15 am 01:15 Clear 68 20 61 16 78 78 S 3 6 29.89 1012 N/A 0.00 0.00
1:35 am 01:35 Clear 68 20 63 17 83 83 S 3 6 29.88 1012 N/A 0.00 0.00
1:55 am 01:55 Clear 68 20 63 17 83 83 SSW 3 6 29.88 1012 N/A 0.00 0.00
2:15 am 02:15 Clear 68 20 63 17 83 83 Calm 29.87 1012 N/A 0.00 0.00
2:35 am 02:35 undefined 66 19 63 17 88 88 SW 3 6 29.87 1012 N/A 0.00 0.00
2:55 am 02:55 undefined 66 19 63 17 88 88 Calm 29.87 1012 N/A 0.00 0.00
3:15 am 03:15 undefined 66 19 63 17 88 88 Calm 29.86 1011 N/A 0.00 0.00
3:35 am 03:35 undefined 64 18 63 17 94 94 Calm 29.86 1011 N/A 0.00 0.00
3:55 am 03:55 undefined 64 18 63 17 94 94 Calm 29.86 1011 N/A 0.00 0.00
4:15 am 04:15 undefined 64 18 63 17 94 94 Calm 29.86 1011 N/A 0.00 0.00
4:35 am 04:35 undefined 64 18 63 17 94 94 Calm 29.86 1011 N/A 0.00 0.00
4:55 am 04:55 undefined 64 18 63 17 94 94 Calm 29.86 1011 N/A 0.00 0.00
5:15 am 05:15 undefined 64 18 61 16 88 88 Calm 29.85 1011 N/A 0.00 0.00
5:35 am 05:35 undefined 63 17 61 16 94 94 Calm 29.86 1011 N/A 0.00 0.00
5:55 am 05:55 undefined 63 17 61 16 94 94 Calm 29.86 1011 N/A 0.00 0.00
6:15 am 06:15 undefined 63 17 61 16 94 94 Calm 29.86 1011 N/A 0.00 0.00
6:35 am 06:35 undefined 64 18 63 17 94 94 S 3 6 29.85 1011 N/A 0.00 0.00
6:55 am 06:55 undefined 64 18 63 17 94 94 S 6 9 29.85 1011 N/A 0.00 0.00
7:15 am 07:15 undefined 66 19 63 17 88 88 S 3 6 29.84 1011 N/A 0.00 0.00
7:35 am 07:35 undefined 68 20 63 17 83 83 Calm 29.84 1011 N/A 0.00 0.00
7:55 am 07:55 Sunny 70 21 63 17 78 78 Calm 29.84 1010 N/A 0.00 0.00
8:15 am 08:15 Sunny 70 21 64 18 83 83 SSW 3 6 29.84 1010 N/A 0.00 0.00
8:35 am 08:35 Sunny 72 22 64 18 78 78 S 3 6 29.84 1010 N/A 0.00 0.00
8:55 am 08:55 Sunny 73 23 66 19 78 78 S 6 9 29.84 1010 N/A 0.00 0.00
9:15 am 09:15 Sunny 75 24 66 19 74 74 Calm 29.84 1010 N/A 0.00 0.00
9:35 am 09:35 Sunny 79 26 68 20 70 70 SSW 7 11 29.83 1010 N/A 0.00 0.00
9:55 am 09:55 Sunny 81 27 68 20 66 66 SSW 7 11 29.82 1010 N/A 0.00 0.00
10:15 am 10:15 Sunny 81 27 70 21 70 70 WSW 9 15 29.82 1010 N/A 0.00 0.00
10:35 am 10:35 Sunny 81 27 70 21 70 70 SW 8 13 29.82 1010 N/A 0.00 0.00
10:55 am 10:55 Sunny 86 30 72 22 62 62 SSW 10 17 29.81 1009 N/A 0.00 0.00
11:15 am 11:15 Sunny 86 30 70 21 59 59 SSW 14 22 29.81 1009 N/A 0.00 0.00
11:35 am 11:35 Sunny 86 30 70 21 59 59 SSW 12 19 29.81 1009 N/A 0.00 0.00
11:55 am 11:55 Sunny 88 31 70 21 55 55 SSW 10 17 29.81 1009 N/A 0.00 0.00
12:15 pm 12:15 Sunny 88 31 70 21 55 55 S 15 24 29.81 1009 N/A 0.00 0.00
12:35 pm 12:35 Sunny 88 31 70 21 55 55 SSW 14 22 29.81 1009 N/A 0.00 0.00
12:55 pm 12:55 Sunny 88 31 70 21 55 55 SW 13 20 29.81 1009 N/A 0.00 0.00
1:15 pm 13:15 Sunny 90 32 70 21 52 52 SW 17 28 29.80 1009 N/A 0.00 0.00
1:35 pm 13:35 Sunny 88 31 70 21 55 55 SSW 14 22 29.79 1009 N/A 0.00 0.00
1:55 pm 13:55 Sunny 90 32 72 22 55 55 SW 12 19 29.78 1008 N/A 0.00 0.00
2:15 pm 14:15 Sunny 90 32 72 22 55 55 SSW 12 19 29.77 1008 N/A 0.00 0.00
2:35 pm 14:35 Sunny 90 32 72 22 55 55 SSW 13 20 29.77 1008 N/A 0.00 0.00
2:55 pm 14:55 Sunny 90 32 72 22 55 55 SSW 12 19 29.77 1008 N/A 0.00 0.00
3:15 pm 15:15 Sunny 90 32 72 22 55 55 SSW 14 22 29.76 1008 10 16 0.00 0.00
3:35 pm 15:35 Sunny 91 33 73 23 56 56 SW 10 17 29.75 1008 10 16 0.00 0.00
3:55 pm 15:55 Sunny 91 33 72 22 52 52 SSW 17 28 29.74 1007 10 16 0.00 0.00
4:15 pm 16:15 Sunny 91 33 73 23 56 56 SSW 15 24 29.74 1007 10 16 0.00 0.00
4:35 pm 16:35 Mostly Cloudy 90 32 72 22 55 55 SSW 14 22 29.77 1008 10 16 0.00 0.00
4:55 pm 16:55 Mostly Cloudy 88 31 72 22 59 59 SW 8 13 29.76 1008 10 16 0.00 0.00
5:15 pm 17:15 Cloudy with Strong Thunderstorms 73 23 68 20 83 83 WSW 21 33 29.83 1010 1 1 0.28 7.11
5:35 pm 17:35 Partly Cloudy with Thunderstorms 70 21 68 20 94 94 WSW 5 7 29.79 1009 N/A 0.40 10.16
5:55 pm 17:55 Cloudy with Nearby Thunderstorms 70 21 68 20 94 94 S 12 19 29.80 1009 N/A 0.40 10.16
6:15 pm 18:15 Partly Cloudy with Nearby Thunderstorms 70 21 68 20 94 94 Calm 29.81 1009 N/A 0.00 0.00
6:35 pm 18:35 Partly Cloudy with Nearby Thunderstorms 70 21 70 21 100 100 SSE 8 13 29.80 1009 N/A 0.00 0.00
6:55 pm 18:55 undefined 70 21 68 20 94 94 Calm 29.82 1010 N/A 0.00 0.00
7:15 pm 19:15 undefined 72 22 68 20 88 88 Calm 29.82 1010 N/A 0.00 0.00
7:35 pm 19:35 Partly Cloudy with Nearby Thunderstorms 72 22 68 20 88 88 S 3 6 29.83 1010 N/A 0.00 0.00
7:55 pm 19:55 Partly Cloudy with Thunderstorms 70 21 70 21 100 100 SSW 9 15 29.86 1011 N/A 0.00 0.00
8:15 pm 20:15 undefined 70 21 70 21 100 100 Calm 29.83 1010 N/A 0.00 0.00
8:35 pm 20:35 undefined 70 21 70 21 100 100 Calm 29.83 1010 N/A 0.00 0.00
8:55 pm 20:55 Mostly Clear with Nearby Thunderstorms 70 21 70 21 100 100 S 3 6 29.83 1010 N/A 0.00 0.00
9:15 pm 21:15 undefined 70 21 70 21 100 100 SSW 3 6 29.84 1010 N/A 0.00 0.00
9:35 pm 21:35 Mostly Clear with Nearby Thunderstorms 70 21 70 21 100 100 SSW 3 6 29.84 1010 N/A 0.00 0.00
9:55 pm 21:55 undefined 70 21 70 21 100 100 SSW 3 6 29.85 1011 N/A 0.00 0.00
10:15 pm 22:15 undefined 70 21 70 21 100 100 S 5 7 29.84 1010 N/A 0.00 0.00
10:35 pm 22:35 undefined 70 21 70 21 100 100 SW 6 9 29.85 1011 N/A 0.00 0.00
10:55 pm 22:55 undefined 70 21 70 21 100 100 SW 5 7 29.86 1011 N/A 0.00 0.00
11:15 pm 23:15 undefined 70 21 70 21 100 100 SW 5 7 29.87 1012 N/A 0.00 0.00
11:35 pm 23:35 undefined 70 21 70 21 100 100 SW 6 9 29.88 1012 N/A 0.00 0.00
11:55 pm 23:55 undefined 70 21 68 20 94 94 Calm 29.87 1012 N/A 0.00 0.00

Powered by AerisWeather